AEST,Max TemperatureF,Mean TemperatureF,Min TemperatureF,Max Dew PointF,MeanDew PointF,Min DewpointF,Max Humidity, Mean Humidity, Min Humidity, Max Sea Level PressureIn, Mean Sea Level PressureIn, Min Sea Level PressureIn, Max VisibilityMiles, Mean VisibilityMiles, Min VisibilityMiles, Max Wind SpeedMPH, Mean Wind SpeedMPH, Max Gust SpeedMPH,PrecipitationIn, CloudCover, Events, WindDirDegrees
2012-9-1,71,68,66,63,58,52,83,68,49,30.10,30.05,29.98,,,,29,13,,0.00,,,141
2012-9-2,71,68,64,59,55,50,77,62,45,30.15,30.10,30.04,,,,24,18,,0.00,,,127
2012-9-3,73,70,66,59,55,50,73,61,44,30.15,30.10,30.04,,,,24,19,,0.00,,,127
2012-9-4,74,70,66,59,57,52,78,64,46,30.18,30.12,30.09,,,,24,19,,0.00,,,126
2012-9-5,73,70,67,63,58,52,78,65,48,30.15,30.09,30.04,,,,28,19,,0.00,,,127
2012-9-6,73,68,64,63,61,57,83,75,55,30.10,30.05,30.01,,,,18,14,,0.01,,,139
2012-9-7,75,70,66,64,63,61,88,77,62,30.07,30.02,29.92,,,,16,10,,0.00,,,132
2012-9-8,75,70,66,64,62,57,88,75,55,30.08,30.02,29.98,,,,23,8,,0.01,,,135
2012-9-9,74,70,66,63,57,50,83,65,34,30.13,30.08,30.03,,,,24,17,,0.00,,,129
2012-9-10,73,70,67,63,59,55,78,65,48,30.18,30.12,30.06,,,,25,18,,0.00,,,131
2012-9-11,73,70,67,66,61,59,83,74,58,30.18,30.12,30.06,,,,28,20,,0.12,,,129
2012-9-12,73,70,66,63,61,57,83,71,60,30.17,30.10,30.04,,,,25,19,,0.00,,,133
2012-9-13,75,70,66,63,61,55,83,72,45,30.08,30.01,29.95,,,,20,15,,0.00,,,130
2012-9-14,75,70,65,64,62,61,88,76,59,30.01,29.96,29.91,,,,15,6,,0.00,,,107
2012-9-15,74,71,68,63,60,57,78,70,52,30.10,30.05,30.00,,,,23,18,,0.00,,,132
2012-9-16,75,72,68,61,58,54,78,62,45,30.12,30.05,29.98,,,,24,19,,0.00,,,115
2012-9-17,75,71,67,64,62,59,83,74,60,30.05,29.99,29.92,,,,22,14,,0.00,,,127
2012-9-18,76,72,68,66,64,61,88,76,56,30.04,29.99,29.92,,,,18,13,,0.00,,,103
2012-9-19,75,72,68,66,65,61,94,78,61,30.07,30.01,29.95,,,,17,7,,0.00,,,97
2012-9-20,77,72,67,66,63,61,94,76,56,30.10,30.04,29.98,,,,15,6,,0.00,,,87
2012-9-21,78,73,68,64,62,59,88,69,51,30.10,30.04,29.98,,,,13,6,,0.00,,,74
2012-9-22,80,74,67,64,62,59,83,69,44,30.04,29.97,29.91,,,,15,4,,0.00,,,351
2012-9-23,78,73,68,64,64,61,88,73,53,29.99,29.92,29.86,,,,18,8,,0.00,,,322
2012-9-24,81,75,69,66,65,63,88,72,51,29.98,29.93,29.89,,,,15,7,,0.00,,,336
2012-9-25,80,75,70,69,67,64,94,76,53,30.02,29.95,29.89,,,,12,5,,0.00,,,360
2012-9-26,78,74,70,67,65,64,83,73,60,30.06,30.00,29.95,,,,20,9,,0.00,,,103
2012-9-27,77,74,71,66,63,61,78,71,58,30.11,30.05,30.01,,,,24,19,,0.01,,,112
2012-9-28,77,73,69,61,58,55,69,58,39,30.11,30.05,29.98,,,,23,18,,0.00,,,101
2012-9-29,81,74,68,64,59,54,73,59,36,30.07,30.01,29.95,,,,15,7,,0.00,,,73
2012-9-30,77,72,68,63,61,59,78,64,48,30.10,30.04,29.98,,,,17,7,,0.00,,,94